Вернуться в каталог

STARLINK-11327

АктивенСвязьVLEO
NORAD 61695·PAYLOAD·🇺🇸 United States

Запущен Oct 30, 2024 с Vandenberg Space Force Base

Loading…

Ближайшие Пролёты (ближайшие 24 часа)

TLE

СвежийSource: CelesTrak SupGP

Эпоха: Sep 15, 2026, 03:41 UTC

1 61695C 24195J   26258.15395833  .00029026  00000+0  23904-3 0  2585
2 61695  53.1574 172.1677 0001225  87.2088 233.2037 15.69700953    14

Отслеживайте STARLINK-11327 в реальном времени с AllMySat

Download on the App Store